Vorticity
4 5 5 7 8 8 8 8 7 8 10 11 9 11 13 13 13 5 6 9 4 12 22 19 11 3 6 9 7 14 18 13 10 6 2 4 7 9 8 8 7 6 8 9 6 5 6 6 5 5 5 5 5 4 4 5 6 8 9 8 6 7 6
4 4 4 5 7 7 8 8 8 7 9 11 11 11 11 12 13 11 10 7 6 22 28 17 8 6 7 9 10 12 16 16 11 5 4 6 9 9 9 9 7 7 8 6 6 7 6 4 3 5 5 5 5 4 4 5 6 8 7 6 6 7 6
5 5 5 6 7 8 10 10 9 9 8 10 12 14 13 10 8 14 17 9 17 36 30 14 10 9 6 7 12 15 16 15 11 8 8 9 11 11 10 8 5 8 8 6 7 8 8 6 4 6 5 6 6 4 5 6 6 7 7 7 7 7 7
6 6 7 10 9 9 10 9 10 11 10 11 13 14 16 12 5 10 18 12 20 30 17 9 12 6 5 10 14 19 20 13 11 12 10 13 22 22 16 8 7 12 8 6 7 7 9 7 5 6 6 6 6 4 5 6 6 7 7 7 6 5 6
6 7 7 8 8 9 9 7 7 8 10 13 13 12 15 17 9 7 13 14 19 24 13 8 10 4 6 13 13 17 20 14 12 11 6 11 20 18 9 6 11 13 6 4 7 8 7 4 4 7 5 5 6 4 5 6 6 7 7 7 6 6 6
6 7 7 6 6 7 7 6 6 7 11 15 14 10 10 15 17 13 11 9 14 23 21 10 5 5 8 12 12 12 15 14 11 7 5 10 10 2 1 8 14 13 6 5 10 11 5 -0 4 8 5 5 6 5 6 7 7 7 8 10 8 6 5
6 6 6 6 6 7 7 7 8 8 10 16 18 14 8 8 16 20 14 9 7 14 24 18 5 5 11 12 11 11 12 14 12 6 4 10 8 -0 4 12 13 10 4 5 10 9 -0 -3 5 8 6 6 6 6 7 7 8 8 8 9 5 4 6
7 7 6 6 8 8 10 11 11 9 7 12 17 16 14 9 9 14 15 14 13 10 18 23 12 7 11 10 9 12 12 10 10 8 5 9 7 2 7 11 8 5 5 9 9 3 -1 2 7 8 7 7 5 6 6 6 9 8 8 8 5 5 7
6 7 5 6 9 10 12 12 11 10 7 9 13 13 17 16 10 13 17 14 13 11 12 17 16 14 11 7 6 10 11 10 13 14 7 5 7 5 5 9 11 9 9 11 7 1 4 7 7 6 6 7 7 6 7 7 8 8 8 8 7 6 6
6 6 5 6 8 10 12 12 10 12 11 11 15 13 12 13 11 17 21 12 7 11 9 7 8 12 13 11 11 11 9 10 17 17 6 6 12 6 0 7 16 15 11 10 6 3 6 7 7 8 6 8 10 8 9 8 7 7 7 7 7 7 5
7 6 5 5 7 9 10 10 10 12 14 15 18 17 13 10 10 17 21 12 5 9 10 6 5 8 13 17 16 11 6 6 11 12 7 10 13 5 1 10 16 13 12 14 6 -1 5 8 7 8 8 8 8 8 11 11 9 8 7 7 8 7 6
7 5 6 8 8 10 9 9 9 10 15 18 18 18 16 13 11 17 23 17 7 6 10 11 9 5 8 17 18 11 8 9 12 10 8 11 11 7 7 13 13 9 11 14 4 -2 5 9 7 7 7 7 6 8 11 11 8 7 7 8 7 6 6
7 7 9 10 9 11 10 9 11 11 13 19 22 17 13 15 13 12 22 21 9 5 6 7 11 6 3 9 16 16 12 12 12 11 13 12 8 7 8 8 9 9 11 10 1 -0 8 9 7 7 6 6 8 9 9 9 8 7 7 8 8 7 7
8 9 9 8 8 9 9 9 10 11 14 19 25 20 13 17 15 9 16 16 9 12 11 7 11 10 4 4 11 16 14 13 14 15 17 11 3 8 14 12 10 10 13 11 -0 -0 9 8 6 8 6 6 8 7 8 9 9 7 6 6 6 5 6
10 9 6 6 8 8 9 11 10 11 15 17 21 21 16 17 18 15 14 11 11 15 8 7 16 15 9 8 10 13 12 11 15 16 13 6 4 10 13 12 11 9 10 11 1 -0 8 7 6 6 4 5 7 8 8 9 9 9 7 6 6 5 6
9 6 4 5 8 9 9 11 11 11 15 15 16 21 22 20 17 15 13 12 17 15 2 4 16 16 13 12 9 11 11 10 12 12 10 8 7 9 8 8 12 9 6 3 -3 -1 7 7 6 6 3 5 9 9 10 11 11 10 8 7 8 8 8
6 3 4 5 6 9 10 10 12 11 11 12 13 19 26 25 17 14 14 12 13 15 13 13 9 3 6 11 10 10 11 10 9 8 11 12 9 9 10 9 9 7 2 2 0 4 10 7 3 3 4 6 8 9 11 11 8 8 10 9 8 8 8
3 3 5 5 4 8 11 10 12 11 9 10 11 16 25 29 21 14 13 9 3 5 14 19 15 5 -1 2 9 13 12 11 11 10 11 13 11 12 11 7 7 5 5 10 8 4 8 6 1 6 9 9 9 11 11 11 8 7 7 7 7 7 4
3 4 5 5 6 9 11 11 11 11 10 9 9 12 19 28 29 20 12 10 6 4 8 15 20 16 3 -2 4 12 15 15 14 13 13 13 13 12 9 6 6 7 11 13 4 -0 8 10 7 11 11 8 12 11 7 10 11 3 0 7 10 7 4
4 5 6 7 9 10 10 9 8 9 10 9 9 10 13 20 27 26 21 17 13 10 8 12 20 21 15 8 3 5 12 14 14 16 13 12 13 9 7 10 10 12 17 14 6 8 14 7 2 6 5 4 10 9 6 11 11 2 0 8 9 3 1
4 6 8 9 11 11 9 6 3 4 6 8 9 9 11 14 17 21 23 22 23 20 7 4 18 25 25 22 10 1 0 0 9 22 19 12 12 10 8 9 11 14 16 12 10 12 5 -4 -0 7 8 8 9 7 10 14 9 1 1 6 5 3 4
5 7 9 10 11 10 7 3 2 3 4 4 6 7 9 12 13 14 15 13 20 23 7 -2 9 16 20 27 22 11 7 1 1 16 22 15 11 11 11 7 8 13 12 8 11 5 -7 -4 8 11 11 11 9 10 15 13 6 0 1 2 2 5 9
5 7 9 10 10 8 6 3 1 2 3 3 5 5 6 8 10 12 13 8 8 15 12 9 13 11 11 19 17 11 17 15 3 5 17 19 13 10 10 8 8 11 6 2 5 -1 -7 1 12 16 16 10 7 10 11 9 7 3 4 8 7 5 6
6 8 9 8 7 5 4 4 2 3 4 5 6 6 4 6 7 9 11 10 6 6 7 9 13 13 13 18 17 12 15 17 10 5 10 18 19 12 8 6 8 10 8 6 8 5 3 8 14 18 17 8 4 7 7 9 11 7 10 16 9 1 4
7 9 8 5 4 3 3 4 4 4 5 7 9 9 7 6 6 7 8 9 8 7 6 6 7 10 12 16 18 18 18 18 17 13 11 15 19 16 10 5 4 10 14 12 11 11 11 14 14 13 10 4 4 8 8 11 13 10 10 7 -1 -1 6
8 8 5 2 1 1 2 4 4 6 6 7 8 9 10 9 7 7 7 7 8 7 7 7 6 6 8 11 13 15 17 18 17 17 18 19 19 17 14 9 3 5 12 12 10 9 10 11 10 10 10 7 8 10 8 9 10 9 5 -1 -2 3 8
9 8 5 3 1 1 3 4 5 6 6 6 7 8 10 11 9 8 7 7 8 8 8 8 7 6 5 7 9 11 15 17 16 14 14 19 23 19 15 15 9 3 8 16 15 9 7 7 6 10 12 10 12 13 11 11 11 9 7 8 10 6 6
9 8 6 5 4 4 5 5 6 7 6 6 6 6 7 9 10 10 9 8 7 7 6 7 7 8 7 6 7 8 9 14 18 15 9 13 24 22 14 15 13 8 15 22 13 3 8 12 11 12 12 9 11 11 10 12 10 7 7 10 12 4 -0
6 7 6 6 7 6 7 7 6 7 7 7 6 4 5 5 7 9 9 9 9 8 7 6 6 6 7 7 8 8 7 10 16 17 11 10 17 22 20 16 9 5 15 20 6 -1 10 16 12 12 12 12 12 9 9 10 6 8 11 9 8 4 -1
4 5 5 7 8 8 8 8 7 7 8 8 7 6 5 4 4 7 7 8 10 10 9 8 6 6 6 5 6 7 8 10 11 13 16 15 12 15 20 22 16 9 12 16 10 8 12 7 -2 -2 2 9 15 10 7 9 10 15 18 11 7 7 6
4 5 5 7 8 9 10 10 9 11 12 12 12 10 10 8 5 5 6 6 8 9 10 9 6 5 4 3 5 6 6 9 10 10 15 18 17 17 19 21 19 13 12 13 10 6 4 -3 -5 3 5 6 11 10 5 10 17 16 13 10 10 11 12
6 5 6 8 8 9 11 10 9 9 9 11 13 12 12 12 10 8 9 9 8 7 9 11 9 6 3 2 6 7 6 8 9 9 10 10 11 14 15 15 16 12 9 11 8 4 1 -3 4 19 20 6 1 1 -1 2 5 1 3 11 13 9 10
10 9 8 7 6 6 6 5 6 5 4 4 6 7 8 9 9 9 8 10 12 10 9 10 10 9 7 7 9 9 8 7 7 9 11 8 4 4 6 13 20 21 16 13 14 16 14 6 2 8 12 7 4 1 -2 -1 0 1 9 15 10 4 7
9 8 7 5 4 3 2 1 2 2 3 4 3 3 4 4 6 7 5 5 7 9 10 10 11 11 10 10 11 11 9 8 8 10 10 9 10 12 12 11 14 21 22 18 14 13 13 14 11 2 -3 -1 4 5 7 10 8 9 15 17 12 10 10
7 7 7 6 6 6 5 5 5 4 4 5 6 7 7 6 7 8 8 7 5 6 7 7 8 11 11 9 10 12 11 9 9 8 6 6 10 14 16 14 10 13 21 26 26 18 11 14 16 6 -5 -2 8 15 20 20 16 14 16 14 12 13 9
11 11 11 11 11 12 11 11 11 10 10 9 9 10 11 11 11 10 11 11 10 10 10 8 6 8 9 9 9 9 12 12 9 6 5 7 9 7 10 16 15 11 15 25 31 29 20 14 13 11 9 10 13 13 10 10 13 15 13 8 5 7 6
11 11 11 10 11 11 11 11 11 11 12 12 11 11 11 11 13 12 13 13 12 12 14 13 11 9 8 10 9 7 9 11 10 10 8 7 8 6 5 9 12 13 15 15 16 20 22 18 17 22 24 15 10 11 7 3 6 8 7 7 8 8 8
Height
5806 5805 5804 5803 5802 5801 5799 5798 5797 5795 5795 5793 5792 5792 5792 5791 5790 5789 5788 5787 5787 5786 5786 5786 5786 5787 5789 5790 5791 5791 5791 5793 5794 5794 5794 5795 5796 5796 5797 5798 5799 5800 5801 5802 5803 5802 5803 5804 5804 5805 5805 5805 5805 5805 5805 5805 5805 5804 5804 5804 5804 5804 5804
5804 5802 5801 5800 5799 5798 5797 5796 5794 5793 5792 5791 5789 5788 5788 5788 5787 5787 5786 5785 5784 5783 5782 5782 5783 5784 5785 5786 5788 5787 5788 5789 5791 5791 5791 5792 5792 5793 5794 5795 5796 5798 5799 5800 5801 5801 5801 5801 5802 5803 5803 5803 5803 5803 5803 5803 5803 5802 5802 5803 5803 5803 5802
5801 5799 5798 5797 5796 5796 5795 5793 5792 5790 5789 5788 5787 5785 5785 5784 5784 5784 5783 5782 5780 5779 5779 5779 5780 5781 5782 5783 5784 5785 5785 5785 5787 5788 5788 5789 5789 5790 5791 5793 5794 5795 5796 5798 5798 5799 5799 5799 5800 5801 5801 5802 5802 5802 5801 5801 5801 5800 5801 5801 5801 5801 5801
5798 5797 5795 5794 5793 5793 5792 5790 5789 5788 5787 5786 5784 5782 5781 5781 5781 5780 5780 5779 5778 5777 5777 5777 5777 5778 5779 5780 5781 5782 5783 5783 5784 5785 5786 5786 5786 5787 5789 5790 5791 5792 5793 5795 5795 5796 5797 5797 5798 5799 5799 5799 5800 5799 5799 5799 5798 5798 5799 5799 5799 5799 5800
5796 5794 5793 5792 5791 5789 5788 5787 5786 5785 5784 5783 5782 5780 5778 5778 5777 5777 5777 5777 5776 5775 5775 5775 5775 5775 5776 5777 5778 5779 5780 5781 5782 5783 5783 5783 5784 5785 5786 5787 5788 5789 5791 5791 5792 5793 5793 5794 5795 5796 5796 5797 5797 5797 5797 5797 5796 5796 5796 5797 5797 5797 5797
5793 5792 5790 5789 5788 5787 5785 5784 5783 5782 5781 5780 5779 5777 5776 5775 5775 5774 5774 5774 5774 5773 5772 5772 5772 5773 5774 5774 5774 5775 5777 5778 5779 5780 5780 5780 5781 5782 5783 5784 5785 5787 5788 5788 5788 5789 5790 5792 5793 5794 5794 5794 5794 5794 5794 5794 5794 5794 5794 5794 5794 5795 5795
5790 5789 5788 5787 5786 5784 5783 5781 5780 5778 5777 5776 5776 5774 5773 5772 5772 5771 5771 5771 5772 5771 5769 5769 5769 5770 5771 5772 5772 5772 5773 5774 5775 5776 5777 5778 5779 5780 5781 5782 5783 5784 5784 5785 5786 5787 5789 5790 5790 5791 5792 5792 5792 5792 5792 5792 5791 5792 5792 5792 5792 5792 5793
5787 5786 5786 5785 5783 5781 5779 5778 5777 5775 5774 5773 5772 5770 5770 5770 5769 5768 5768 5769 5769 5768 5767 5766 5767 5768 5769 5769 5770 5770 5770 5771 5772 5774 5774 5775 5776 5778 5779 5779 5781 5781 5782 5783 5783 5785 5787 5788 5788 5789 5789 5790 5790 5790 5790 5790 5789 5790 5790 5790 5790 5790 5790
5784 5783 5783 5782 5781 5779 5776 5775 5774 5772 5771 5769 5768 5767 5766 5766 5766 5765 5765 5765 5766 5766 5765 5764 5764 5765 5766 5766 5767 5767 5768 5768 5769 5771 5772 5773 5774 5775 5776 5776 5777 5779 5779 5780 5780 5782 5785 5785 5785 5786 5786 5787 5787 5787 5787 5787 5787 5788 5788 5788 5787 5788 5788
5782 5781 5779 5779 5778 5776 5774 5772 5771 5770 5768 5766 5765 5763 5763 5762 5762 5761 5761 5761 5761 5761 5761 5761 5761 5762 5763 5763 5764 5764 5765 5765 5766 5768 5769 5770 5771 5772 5773 5773 5774 5775 5776 5777 5778 5780 5781 5782 5782 5783 5783 5784 5784 5785 5785 5785 5785 5785 5785 5785 5785 5785 5786
5779 5778 5776 5775 5774 5773 5771 5769 5768 5767 5765 5764 5762 5760 5759 5759 5758 5757 5757 5757 5757 5757 5757 5758 5758 5759 5759 5760 5760 5760 5761 5762 5763 5765 5766 5767 5768 5770 5770 5771 5771 5772 5773 5774 5774 5776 5778 5778 5779 5780 5780 5781 5781 5782 5782 5781 5782 5782 5782 5782 5782 5783 5783
5777 5775 5774 5772 5771 5769 5768 5766 5764 5763 5762 5760 5759 5757 5755 5754 5754 5754 5753 5753 5753 5753 5754 5755 5755 5755 5755 5755 5756 5757 5758 5759 5760 5761 5763 5764 5765 5766 5767 5767 5769 5770 5770 5770 5771 5772 5774 5775 5776 5777 5778 5778 5778 5778 5778 5778 5779 5780 5780 5779 5779 5780 5780
5774 5772 5771 5770 5768 5766 5765 5763 5761 5760 5758 5757 5755 5754 5752 5751 5750 5750 5750 5750 5750 5750 5750 5751 5751 5751 5751 5752 5753 5754 5755 5757 5757 5758 5759 5761 5762 5763 5763 5764 5766 5767 5767 5767 5767 5769 5770 5771 5773 5774 5774 5775 5775 5775 5775 5776 5776 5777 5777 5776 5776 5778 5778
5771 5770 5768 5767 5766 5764 5762 5761 5759 5757 5755 5753 5752 5750 5749 5748 5747 5747 5746 5747 5748 5749 5748 5748 5748 5748 5748 5749 5750 5751 5753 5753 5754 5754 5755 5757 5759 5759 5760 5761 5762 5763 5763 5763 5764 5766 5766 5767 5769 5770 5771 5771 5772 5771 5772 5773 5773 5774 5774 5773 5773 5775 5775
5768 5767 5766 5765 5763 5762 5760 5758 5757 5755 5753 5751 5748 5747 5745 5744 5744 5744 5743 5744 5745 5746 5747 5747 5746 5746 5746 5747 5748 5749 5749 5750 5750 5750 5751 5753 5754 5755 5756 5757 5758 5759 5759 5759 5760 5762 5763 5764 5765 5767 5767 5767 5768 5768 5768 5769 5770 5770 5770 5770 5770 5771 5773
5766 5765 5764 5763 5761 5760 5758 5756 5754 5752 5751 5748 5746 5744 5742 5740 5740 5740 5740 5740 5740 5741 5743 5744 5744 5745 5744 5745 5745 5746 5745 5746 5746 5746 5746 5747 5749 5750 5751 5753 5754 5755 5756 5757 5758 5759 5759 5760 5761 5762 5763 5764 5764 5764 5765 5766 5766 5767 5767 5767 5767 5769 5770
5764 5763 5762 5761 5759 5758 5756 5754 5752 5750 5748 5746 5744 5742 5739 5737 5736 5736 5737 5737 5737 5738 5739 5739 5740 5742 5743 5743 5743 5742 5742 5742 5742 5742 5742 5743 5745 5746 5747 5749 5750 5751 5753 5754 5755 5756 5756 5756 5757 5758 5759 5760 5760 5760 5761 5762 5762 5763 5764 5764 5765 5766 5767
5761 5761 5760 5759 5757 5756 5754 5752 5750 5748 5746 5744 5742 5740 5738 5736 5734 5734 5735 5735 5735 5736 5736 5736 5736 5738 5739 5740 5739 5738 5738 5738 5738 5738 5739 5740 5742 5742 5743 5744 5746 5747 5749 5751 5751 5752 5752 5753 5753 5754 5755 5756 5757 5757 5758 5759 5759 5760 5760 5761 5762 5763 5763
5758 5758 5757 5756 5755 5753 5752 5750 5749 5747 5745 5743 5740 5738 5737 5735 5733 5732 5732 5732 5732 5732 5733 5733 5733 5734 5735 5735 5735 5735 5735 5735 5734 5734 5735 5737 5738 5738 5739 5740 5741 5743 5745 5747 5748 5749 5749 5749 5749 5750 5751 5752 5753 5753 5754 5755 5756 5756 5757 5757 5758 5760 5760
5756 5755 5754 5753 5752 5750 5749 5748 5747 5745 5744 5742 5739 5737 5735 5734 5732 5730 5730 5730 5730 5730 5730 5730 5730 5731 5732 5732 5731 5732 5733 5733 5732 5732 5733 5734 5734 5735 5735 5736 5737 5739 5741 5742 5744 5747 5747 5746 5746 5746 5747 5747 5748 5748 5749 5751 5753 5753 5753 5754 5755 5756 5757
5753 5752 5751 5750 5749 5747 5746 5745 5744 5743 5742 5741 5738 5736 5734 5733 5731 5730 5729 5728 5728 5728 5727 5727 5727 5727 5727 5727 5728 5729 5730 5730 5730 5731 5731 5731 5731 5731 5732 5733 5733 5735 5737 5738 5740 5742 5742 5741 5742 5742 5743 5744 5745 5745 5746 5748 5749 5749 5749 5750 5751 5753 5753
5750 5749 5748 5747 5746 5745 5743 5742 5741 5740 5739 5739 5737 5735 5734 5732 5731 5729 5728 5727 5726 5725 5725 5725 5724 5723 5722 5723 5724 5725 5725 5725 5726 5727 5728 5728 5728 5728 5729 5729 5730 5732 5733 5734 5735 5736 5736 5736 5738 5739 5740 5741 5741 5742 5743 5744 5745 5746 5746 5747 5747 5749 5749
5746 5746 5745 5743 5743 5742 5740 5739 5738 5737 5736 5736 5735 5734 5732 5731 5729 5728 5727 5726 5724 5723 5723 5723 5722 5721 5721 5721 5721 5721 5720 5721 5722 5722 5723 5724 5724 5724 5725 5726 5726 5728 5729 5729 5730 5732 5732 5733 5734 5735 5736 5737 5738 5739 5740 5741 5742 5743 5743 5743 5744 5745 5746
5743 5742 5742 5741 5739 5739 5737 5736 5735 5734 5733 5732 5732 5732 5730 5728 5727 5726 5725 5724 5723 5722 5721 5721 5720 5720 5720 5719 5719 5719 5718 5718 5719 5719 5719 5720 5720 5721 5722 5722 5723 5724 5725 5726 5726 5727 5728 5729 5730 5731 5731 5733 5734 5735 5736 5737 5738 5739 5739 5740 5740 5740 5741
5739 5739 5738 5737 5736 5735 5734 5733 5732 5731 5729 5728 5728 5728 5728 5726 5725 5724 5722 5721 5720 5719 5719 5719 5718 5718 5717 5717 5717 5717 5716 5715 5715 5715 5716 5716 5716 5717 5718 5718 5719 5720 5721 5722 5724 5724 5724 5724 5725 5726 5727 5728 5729 5731 5731 5733 5734 5735 5735 5735 5736 5737 5737
5735 5735 5735 5734 5733 5732 5731 5730 5729 5728 5726 5724 5723 5723 5724 5723 5722 5721 5719 5718 5717 5716 5716 5716 5715 5714 5714 5714 5714 5714 5713 5712 5711 5711 5711 5712 5712 5712 5713 5714 5714 5716 5717 5718 5720 5721 5720 5720 5721 5722 5722 5723 5724 5725 5727 5728 5730 5730 5730 5731 5733 5733 5734
5731 5731 5731 5730 5729 5728 5727 5726 5725 5724 5723 5721 5720 5719 5719 5719 5718 5717 5716 5715 5714 5713 5713 5712 5712 5711 5710 5710 5710 5711 5710 5709 5708 5707 5707 5707 5707 5708 5709 5710 5711 5711 5711 5713 5715 5716 5715 5716 5717 5718 5717 5718 5719 5721 5722 5723 5725 5725 5726 5728 5729 5729 5729
5727 5727 5726 5726 5725 5724 5723 5722 5721 5720 5719 5718 5716 5715 5714 5714 5714 5713 5712 5711 5710 5710 5709 5709 5708 5707 5707 5706 5706 5707 5707 5706 5705 5703 5702 5703 5703 5704 5705 5706 5707 5706 5706 5707 5709 5709 5710 5712 5714 5713 5713 5714 5715 5716 5717 5718 5720 5722 5722 5724 5725 5725 5724
5723 5722 5722 5721 5720 5719 5718 5717 5717 5716 5715 5714 5713 5711 5710 5709 5709 5709 5708 5707 5706 5706 5705 5705 5704 5704 5703 5703 5702 5702 5702 5702 5701 5699 5699 5699 5699 5699 5700 5701 5702 5702 5702 5703 5704 5704 5705 5708 5709 5708 5708 5709 5710 5710 5711 5713 5716 5718 5717 5718 5720 5720 5721
5718 5717 5717 5716 5715 5714 5713 5713 5712 5711 5710 5709 5708 5707 5706 5705 5704 5704 5703 5703 5702 5702 5701 5701 5700 5700 5699 5699 5698 5698 5698 5698 5697 5696 5695 5695 5695 5695 5695 5696 5696 5698 5699 5699 5700 5700 5702 5704 5704 5703 5703 5705 5705 5706 5707 5708 5711 5713 5712 5713 5714 5715 5716
5713 5712 5711 5710 5710 5709 5708 5707 5707 5706 5705 5704 5703 5702 5701 5700 5699 5699 5698 5698 5698 5697 5697 5696 5696 5696 5695 5695 5694 5693 5693 5693 5693 5692 5691 5691 5691 5690 5691 5691 5692 5693 5694 5694 5695 5696 5697 5699 5700 5699 5700 5701 5702 5702 5702 5704 5706 5707 5707 5709 5711 5711 5712
5707 5707 5706 5705 5704 5703 5702 5702 5701 5700 5700 5699 5698 5697 5696 5695 5694 5694 5693 5693 5692 5692 5692 5692 5691 5691 5691 5690 5690 5689 5688 5688 5689 5688 5688 5687 5686 5686 5686 5687 5687 5688 5688 5688 5690 5691 5692 5694 5695 5695 5695 5696 5697 5698 5699 5700 5701 5701 5703 5706 5708 5708 5708
5702 5701 5701 5699 5698 5697 5696 5696 5695 5694 5694 5693 5693 5692 5691 5690 5689 5688 5688 5687 5687 5687 5687 5687 5686 5686 5686 5686 5685 5684 5684 5683 5683 5683 5683 5683 5682 5681 5682 5683 5682 5682 5683 5683 5684 5685 5687 5688 5689 5689 5689 5690 5691 5693 5694 5695 5696 5697 5699 5701 5703 5703 5703
5697 5695 5695 5693 5692 5691 5690 5689 5688 5688 5687 5687 5686 5686 5685 5684 5684 5683 5682 5682 5682 5681 5681 5681 5681 5681 5680 5680 5680 5680 5679 5679 5678 5677 5677 5677 5677 5677 5678 5678 5678 5678 5678 5678 5678 5679 5681 5682 5682 5683 5683 5684 5685 5687 5688 5689 5691 5692 5694 5695 5697 5698 5698
5691 5689 5688 5687 5685 5684 5683 5682 5681 5680 5679 5679 5679 5678 5678 5678 5677 5677 5676 5676 5676 5676 5676 5675 5675 5675 5675 5675 5674 5674 5674 5674 5674 5673 5672 5672 5672 5671 5672 5673 5673 5674 5674 5674 5673 5674 5675 5676 5677 5678 5679 5679 5680 5682 5682 5683 5685 5688 5689 5689 5691 5693 5693
5684 5683 5681 5680 5678 5677 5676 5675 5674 5673 5672 5671 5671 5670 5670 5670 5670 5669 5669 5669 5669 5669 5669 5669 5669 5668 5668 5669 5669 5669 5668 5669 5669 5668 5668 5668 5667 5666 5666 5667 5668 5669 5669 5669 5668 5669 5670 5671 5672 5674 5675 5675 5676 5677 5677 5678 5680 5683 5684 5684 5686 5688 5689
5678 5676 5675 5673 5671 5670 5669 5668 5667 5666 5665 5664 5663 5662 5662 5662 5662 5662 5662 5662 5662 5662 5662 5663 5663 5662 5662 5663 5663 5663 5663 5663 5663 5663 5663 5663 5663 5662 5662 5662 5663 5663 5663 5663 5663 5664 5665 5665 5667 5668 5669 5670 5671 5672 5673 5674 5676 5677 5678 5679 5681 5682 5683